Location: Newark
(31.5350°N, 35.0986°E)
Time: 12:12:13
(UTC+00:00)

Transit 4A - Pass Details

Date: 25 October 2019
Orbit: 868 x 976 km, 66.8° (Epoch: 14 November)

Event Time Altitude Azimuth Distance (km) Brightness Sun altitude
Rises 10:21:51 0° 337° (NNW) 3,520 10.6 44.2°
Reaches altitude 10° 10:24:24 10° 340° (NNW) 2,562 10.0 44.0°
Maximum altitude 10:30:17 68° 63° (ENE) 944 8.4 43.6°
Drops below altitude 10° 10:36:02 10° 146° (SSE) 2,506 10.6 43.1°
Sets 10:38:31 0° 149° (SSE) 3,438 11.2 42.8°
